User: anonymous   Login
Location: Campillo
(40.8621°N, 4.2488°W)
Time: 22:01:27
(UTC+00:00)
Language:

Cosmos 1707 Rocket - Orbit

View from above orbital plane
View from above orbital plane
View from above satellite
View from above satellite

Ground track
Ground track

The orbit data is extracted from the following two-line orbital elements,

1 16327U 85113B   21212.49798126  .00000093  00000-0  82643-5 0  9991
2 16327  82.5357 125.0206 0020447  65.6162 107.2098 14.83515964903892
Epoch (UTC): 31 July 2021 11:57:05
Eccentricity: 0.0020447
inclination: 82.5357°
perigee height: 604 km
apogee height: 632 km
right ascension of ascending node: 125.0206°
argument of perigee: 65.6162°
revolutions per day: 14.83515964
mean anomaly at epoch: 107.2098°
orbit number at epoch: 90389

The dashed part of the orbit path shows where the satellite is in the earth's shadow,  

DLR